Regional Weather Roundup
Issued by NWS Burlington, VT

Home | Current Version | Previous Version | Text Only | Print | Product List | Glossary On
Versions: 1 2 3 4 5 6 7 8 9 10 11 12 13 14 15 16 17 18 19 20 21 22 23 24 25 26 27 28 29 30 31 32 33 34 35 36 37 38 39 40 41 42 43 44 45 46 47 48 49 50
000
ASUS41 KBTV 061130
RWRBTV
VERMONT REGIONAL WEATHER ROUNDUP
NATIONAL WEATHER SERVICE BURLINGTON VT
700 AM EDT MON JUL 06 2015

NOTE: "FAIR" INDICATES FEW OR NO CLOUDS BELOW 12,000 FEET WITH NO
SIGNIFICANT WEATHER AND/OR OBSTRUCTIONS TO VISIBILITY.

* THESE REPORTS ARE NOT UNDER NWS QUALITY CONTROL AND/OR DO NOT
  REPORT WEATHER SUCH AS PRECIPITATION AND FOG.

VTZ001>019-061200-
_____VERMONT_____


CITY           SKY/WX    TMP DP  RH WIND       PRES   REMARKS
BURLINGTON     SUNNY     64  58  80 CALM      30.16R
MONTPELIER     FOG       56  55  97 CALM      30.22R VSB<1/4
MORRISVILLE    FOG       57  55  93 N3        30.19R VSB 1/4
ST. JOHNSBURY*   N/A     56  54  93 MISG      30.17R
LYNDONVILLE*   FOG       55  54  97 CALM      30.21S VSB<1/4
MIDDLEBURY*    FAIR      61  61 100 N3        30.16R
RUTLAND*       SUNNY     61  52  72 S3        30.17S
SPRINGFIELD    FOG       57  56  96 CALM      30.18S VSB 1/4
HIGHGATE*      FAIR      62  59  92 S5        30.15S
NEWPORT*       FAIR      59  58  94 CALM      30.19R
BENNINGTON     MOSUNNY   56  54  93 CALM      30.17S FOG
SUTTON*          N/A     57 N/A N/A MISG        N/A
GALLUP MILLS*    N/A     54 N/A N/A MISG        N/A
MT. MANSFIELD*   N/A     57 N/A N/A W2          N/A

_____LAKE CHAMPLAIN_____


CITY           SKY/WX    TMP DP  RH WIND       PRES   REMARKS
BURTON ISLAND*   N/A     64  61  88 SE6         N/A
COLCHESTER RF*   N/A     64  63  94 SE3         N/A
DIAMOND ISL*     N/A     63  63 100 SE1         N/A

$$

NYZ007-026>031-035-052-083-061200-
_____NORTHERN NEW YORK_____


CITY           SKY/WX    TMP DP  RH WIND       PRES   REMARKS
PLATTSBURGH    SUNNY     61  59  93 CALM      30.14R
SARANAC LAKE   FOG       50  50 100 CALM      30.18R VSB<1/4
MASSENA        SUNNY     60  58  92 CALM      30.14R FOG
OGDENSBURG*    SUNNY     63  61  94 CALM      30.13S
POTSDAM*       SUNNY     63  59  88 CALM      30.14S
STARK FALLS*     N/A     64 N/A N/A E5          N/A
WATERTOWN      SUNNY     58  54  86 E5        30.12S
FT DRUM        SUNNY     59  54  83 SE10      30.12F
ALBANY         PTSUNNY   63  58  83 CALM      30.16S
GLENS FALLS    SUNNY     60  56  86 CALM      30.15S

$$
NHZ002-005-011-061200-
_____NEW HAMPSHIRE_____


CITY           SKY/WX    TMP DP  RH WIND       PRES   REMARKS
LEBANON        FOG       62  60  93 CALM      30.17R VSB 1
KEENE          CLOUDY    57  54  88 CALM      30.18S
MT WASHINGTON  MOSUNNY   46  43  87 NW18        N/A
PLYMOUTH       FOG       56  56 100 CALM      30.18R VSB 1/2
WHITEFIELD     SUNNY     55  51  86 CALM      30.19R

$$

_____REGIONAL QUEBEC LOCATIONS_____


CITY           SKY/WX    TMP DP  RH WIND       PRES   REMARKS
MONTREAL       CLOUDY    66  61  82 SW5       30.13R
QUEBEC CITY    MOSUNNY   61  57  88 NW2       30.13R
SHERBROOKE     MOSUNNY   59  57  94 VRB2      30.17R

_____REGIONAL ONTARIO LOCATIONS_____


CITY           SKY/WX    TMP DP  RH WIND       PRES   REMARKS
OTTAWA         MOSUNNY   61  59  94 S3        30.13R

______KEY______
VSB  - VISIBILITY IN MILES
WCI  - WIND CHILL INDEX
HX   - HEAT INDEX
$$
NNNN


USA.gov is the U.S. government's official web portal to all federal, state and local government web resources and services.